Regional Weather Roundup
Issued by NWS Memphis, TN

Home | Current Version | Previous Version | Text Only | Print | Product List | Glossary On
Versions: 1 2 3 4 5 6 7 8 9 10 11 12 13 14 15 16 17 18 19 20 21 22 23 24 25 26 27 28 29 30 31 32 33 34 35 36 37 38 39 40 41 42 43 44 45 46 47 48 49 50
000
ASUS44 KMEG 030910
RWRMEG
MEMPHIS CWA HOURLY WEATHER ROUNDUP
NATIONAL WEATHER SERVICE MEMPHIS TN
400 AM CDT TUE MAY 03 2016

...WEST TENNESSEE...

CITY           SKY/WX    TMP DP  RH WIND       PRES   REMARKS
MEMPHIS INTL   PTCLDY    57  51  80 N6        29.98R
NWS MEMPHIS      N/A     57 N/A N/A MISG        N/A
JACKSON        CLOUDY    57  50  77 N6        29.97S
LEXINGTON      CLOUDY    55  55 100 NE3       29.95F
DYERSBURG      CLOUDY    55  52  88 N5          N/A
UNION CITY     CLOUDY    55  52  88 N6        29.97R


...EASTERN ARKANSAS...

CITY           SKY/WX    TMP DP  RH WIND       PRES   REMARKS
JONESBORO      CLOUDY    57  50  77 N7        30.00S
WEST MEMPHIS   CLEAR     56  53  90 N5        29.97S
BATESVILLE     CLOUDY    54  46  76 NW3       30.02S
NEWPORT        CLOUDY    56  50  80 NW7       30.02S
WALNUT RIDGE   CLOUDY    55  46  71 NW8       30.01S
BLYTHEVILLE    CLOUDY    57  52  83 N7        29.99S
SEARCY         CLOUDY    56  49  77 N7        30.03S
STUTTGART      CLOUDY    55  48  76 NW9       30.01S
PINE BLUFF     MOCLDY    57  51  80 N7        30.01S
MONTICELLO     CLOUDY    59  54  83 CALM      29.99F


...NORTH MISSISSIPPI...

CITY           SKY/WX    TMP DP  RH WIND       PRES   REMARKS
TUPELO         PTCLDY    59  56  89 NW3       29.94S
OXFORD         MOCLDY    57  57 100 NW3       29.97F FOG
BATESVILLE     CLOUDY    58  56  92 CALM      29.97S
OLIVE BRANCH   CLOUDY    55  55 100 N8        29.98R
TUNICA         CLEAR     54  52  94 N6        29.99R
CORINTH        CLOUDY    59  57  94 N5        29.94F
GREENWOOD      CLEAR     60  57  89 CALM      29.96S
COLUMBUS       CLOUDY    62  59  90 NW8       29.93S
STARKVILLE     CLOUDY    61  59  94 CALM      29.94S
GOLDEN TRIANGL CLOUDY    63  57  82 NW5       29.93S


...SOUTHEAST MISSOURI...

CITY           SKY/WX    TMP DP  RH WIND       PRES   REMARKS
KENNETT        CLOUDY    57  54  88 NW5       29.98S
WEST PLAINS    CLOUDY    50  45  83 NW6       30.03S
POPLAR BLUFF   PTCLDY    54  48  80 N3        30.00S
CAPE GIRARDEAU CLOUDY    54  49  83 NW7       29.99S


...NORTHWEST ALABAMA...

CITY           SKY/WX    TMP DP  RH WIND       PRES   REMARKS
MUSCLE SHOALS  MOCLDY    60  56  86 NW3       29.95S


...MIDDLE TENNESSEE...

CITY           SKY/WX    TMP DP  RH WIND       PRES   REMARKS
NASHVILLE      CLOUDY    57  51  80 NW6       29.95S
CLARKSVILLE    CLOUDY    54  49  83 NW6       29.96R
COLUMBIA       CLOUDY   N/A N/A N/A CALM      29.93S


...WESTERN KENTUCKY...

CITY           SKY/WX    TMP DP  RH WIND       PRES   REMARKS
PADUCAH        CLOUDY    54  49  83 NW3       29.97S
FORT CAMPBELL  CLOUDY    54  50  86 NW6       29.96S


...CENTRAL ARKANSAS...

CITY           SKY/WX    TMP DP  RH WIND       PRES   REMARKS
LITTLE ROCK    CLOUDY    58  49  72 NW7       30.03R


SKY/WX REPORTED AS FAIR MEANS FEW OR NO CLOUDS BELOW
12 THOUSAND FEET.





USA.gov is the U.S. government's official web portal to all federal, state and local government web resources and services.